Tracking 21076 objects as of 9-Aug-2020
HD Live streaming from Space Station
objects crossing your sky now
Track the most recent launched group of Starlink satellites

COSMOS 832

Track COSMOS 832 now!
10-day predictions
COSMOS 832 is classified as:


NORAD ID: 8896
Int'l Code: 1976-054H
Perigee: 1,488.9 km
Apogee: 1,527.7 km
Inclination: 74.0 °
Period: 116.0 minutes
Semi major axis: 7879 km
RCS: 0.7035 m2 (medium)
Launch date: June 15, 1976
Source: Commonwealth of Independent States (former USSR) (CIS)
Launch site: PLESETSK MISSILE AND SPACE COMPLEX (PKMTR)
aabbcc
Your satellite tracking list
Your tracking list is empty




NASA's NSSDC Master Catalog

Two Line Element Set (TLE):
1  8896U 76054H   20221.78052331 -.00000029  00000-0 -98894-4 0  9994
2  8896  73.9973 236.5102 0024641 208.0943 326.5771 12.41286811   749
Source of the keplerian elements: AFSPC